Temp
27 23 22 24 23 25 24 25 25 27 29 29 29 28 31 31 29 29 28 27 26 27 29 27 26 26 25 25 25 24 24 23 22 21 21 21 21 20 20 20 19 19 18 18
24 23 25 26 26 26 26 25 25 27 29 27 28 28 28 29 30 30 28 27 27 27 27 27 27 26 26 25 25 25 24 23 22 22 22 21 20 20 20 20 19 19 19 18
24 26 27 27 27 27 26 24 26 26 28 28 29 26 27 28 30 32 31 31 29 28 29 27 27 27 26 25 25 25 25 24 23 22 21 20 20 20 20 20 20 20 19 18
25 27 27 27 27 27 24 27 28 28 27 24 27 23 24 26 26 27 31 30 28 28 29 28 28 27 26 26 25 25 25 24 23 22 22 21 20 20 20 20 20 20 19 18
26 27 26 26 27 28 26 28 28 28 27 24 25 23 23 25 27 27 28 29 29 28 29 28 29 28 26 26 25 25 25 24 23 22 22 22 20 20 19 19 19 19 18 18
26 28 27 27 28 28 29 27 25 22 21 22 24 23 26 24 27 27 28 29 28 28 29 31 29 26 26 25 25 24 24 23 22 22 22 22 21 19 19 19 19 19 19 18
25 25 27 29 27 27 28 22 21 22 21 21 24 24 25 26 25 27 27 28 28 29 31 28 27 26 26 25 25 24 24 23 22 22 21 22 21 21 19 18 18 19 19 18
22 23 26 28 26 26 26 23 20 22 21 22 23 24 27 27 30 32 30 29 29 30 30 29 28 26 25 26 25 24 23 23 22 20 21 22 20 20 18 19 18 18 18 18
22 23 27 27 28 27 26 25 23 21 21 20 22 24 25 26 27 26 29 30 30 31 30 28 26 26 25 26 25 24 23 22 20 20 21 20 19 18 18 20 18 18 18 17
25 22 26 28 29 29 26 26 25 19 24 22 21 23 23 26 26 25 25 26 28 28 26 25 25 25 25 25 24 23 23 22 20 21 21 20 20 19 18 18 18 18 18 17
25 21 24 25 26 26 25 25 24 21 19 21 21 23 24 22 25 23 23 24 26 26 26 25 25 24 24 24 23 22 22 21 21 21 20 19 19 18 18 18 18 17 17 17
23 22 20 25 27 27 27 27 25 24 22 19 20 22 22 22 23 25 24 23 22 22 23 23 24 24 23 22 22 21 21 20 21 20 19 20 20 19 18 18 18 18 17 17
22 20 19 23 24 27 27 26 26 21 18 20 21 21 22 21 21 24 23 24 25 25 24 23 23 23 22 22 22 21 21 21 21 20 20 21 20 20 20 19 18 18 17 17
22 19 19 19 21 23 26 28 26 22 23 22 21 23 22 20 20 18 21 23 25 26 26 25 24 23 22 22 22 22 22 21 21 21 21 21 20 19 19 18 18 18 17 17
19 18 19 19 22 24 27 28 27 25 25 24 24 22 20 17 18 18 23 24 26 25 24 23 23 22 23 23 23 22 22 21 21 21 22 20 19 18 18 18 17 17 17 17
18 18 17 21 21 24 26 23 25 19 19 20 22 22 19 19 19 19 21 23 23 23 24 24 24 23 23 23 23 22 21 21 20 20 20 20 19 18 18 18 17 17 17 16
18 16 17 20 19 23 21 20 20 17 16 15 20 16 18 19 19 19 18 21 21 20 21 23 23 23 23 23 23 22 21 20 20 20 20 19 19 18 18 17 17 17 17 16
15 14 13 18 19 20 19 19 18 16 16 16 16 16 14 15 15 15 17 18 19 22 22 23 22 22 22 22 22 22 22 21 21 19 19 19 18 17 17 17 16 16 16 16
15 13 15 18 17 19 18 18 18 18 16 15 16 15 14 15 16 15 17 18 19 20 18 19 19 22 21 21 21 21 21 20 20 19 19 19 18 18 18 18 18 17 16 16
16 14 17 15 18 17 15 17 18 17 18 15 15 15 15 14 12 14 15 17 16 17 18 18 19 19 19 20 20 21 20 19 19 19 19 19 19 19 19 19 20 20 18 20
13 12 15 15 18 15 15 14 17 19 16 13 14 14 16 14 14 15 17 17 17 17 18 18 18 18 17 18 18 19 18 18 18 18 18 18 18 18 18 17 17 19 19 20
12 12 12 13 15 16 15 16 16 14 13 15 15 15 15 16 16 16 16 16 16 17 18 17 17 16 16 16 17 17 17 17 17 17 17 18 18 17 17 17 15 12 14 18
13 12 12 12 12 13 13 13 13 14 13 14 15 16 15 15 15 16 17 16 16 16 16 16 16 15 15 14 15 16 16 16 16 16 17 16 16 16 15 15 14 12 12 12
12 12 11 12 12 12 12 12 12 16 13 14 15 15 15 15 16 16 17 16 16 15 15 14 14 14 14 14 14 14 14 15 15 15 16 15 15 16 15 15 15 15 17 16
13 12 12 11 11 11 11 13 14 13 12 13 15 16 17 16 16 16 15 14 14 14 13 13 13 13 13 13 13 13 14 14 14 14 14 14 14 15 15 15 16 16 16 16
12 11 10 11 12 13 13 13 15 14 15 17 17 17 16 16 15 15 15 14 14 13 13 13 12 12 12 12 13 13 13 12 12 12 12 13 14 15 15 16 17 17 16 16
Height
1480 1489 1494 1485 1485 1487 1493 1497 1498 1481 1467 1477 1472 1464 1451 1449 1454 1456 1459 1463 1462 1461 1465 1472 1480 1485 1489 1494 1498 1501 1504 1508 1511 1513 1514 1516 1517 1518 1520 1520 1521 1521 1522 1522
1483 1488 1477 1475 1476 1481 1485 1492 1490 1474 1465 1472 1465 1463 1453 1449 1446 1448 1450 1454 1454 1457 1464 1469 1476 1480 1484 1488 1492 1496 1500 1503 1506 1509 1511 1513 1515 1515 1516 1516 1517 1517 1518 1518
1481 1467 1469 1476 1476 1480 1481 1490 1484 1483 1462 1460 1461 1470 1458 1443 1442 1440 1441 1441 1443 1448 1454 1464 1469 1473 1477 1481 1486 1491 1495 1499 1501 1505 1507 1509 1510 1512 1512 1512 1512 1513 1514 1514
1468 1461 1469 1471 1475 1474 1491 1466 1470 1473 1477 1492 1463 1504 1469 1450 1445 1437 1431 1435 1439 1442 1450 1457 1463 1464 1469 1474 1483 1489 1492 1495 1498 1501 1503 1504 1506 1508 1508 1509 1509 1510 1511 1512
1463 1462 1464 1469 1464 1465 1474 1459 1463 1463 1471 1479 1475 1493 1474 1452 1450 1439 1428 1426 1429 1434 1442 1452 1455 1457 1464 1471 1478 1485 1489 1492 1495 1498 1500 1502 1504 1505 1505 1506 1506 1507 1508 1510
1452 1450 1453 1456 1451 1455 1455 1461 1464 1470 1480 1500 1481 1486 1466 1462 1447 1438 1427 1424 1425 1433 1441 1446 1450 1456 1462 1470 1476 1482 1486 1489 1492 1494 1497 1500 1502 1503 1502 1503 1504 1505 1507 1507
1454 1452 1446 1447 1456 1449 1454 1475 1503 1502 1505 1506 1473 1483 1461 1438 1438 1431 1425 1424 1425 1426 1431 1442 1447 1451 1459 1466 1472 1478 1484 1487 1489 1491 1494 1496 1497 1498 1500 1499 1502 1503 1504 1504
1473 1474 1449 1438 1450 1455 1457 1468 1501 1512 1510 1495 1471 1486 1449 1428 1414 1420 1420 1422 1427 1430 1434 1439 1443 1449 1455 1461 1468 1476 1482 1485 1488 1492 1495 1494 1495 1497 1502 1498 1500 1500 1501 1502
1465 1458 1437 1434 1434 1442 1449 1463 1453 1480 1482 1495 1482 1460 1434 1420 1411 1410 1417 1421 1426 1429 1432 1436 1441 1447 1452 1458 1466 1473 1480 1484 1486 1491 1493 1496 1495 1492 1500 1497 1499 1498 1499 1500
1445 1465 1437 1430 1429 1428 1441 1437 1464 1481 1490 1501 1487 1473 1464 1435 1422 1415 1420 1421 1423 1424 1431 1436 1440 1445 1451 1457 1464 1474 1483 1485 1488 1489 1492 1493 1494 1496 1499 1498 1500 1498 1497 1498
1437 1450 1449 1438 1436 1440 1439 1450 1449 1460 1476 1493 1501 1478 1436 1431 1423 1420 1421 1420 1423 1424 1428 1433 1438 1445 1453 1461 1468 1474 1479 1482 1486 1487 1488 1490 1492 1494 1496 1498 1498 1497 1497 1497
1439 1446 1461 1438 1422 1420 1422 1431 1439 1461 1473 1473 1476 1472 1428 1429 1426 1422 1428 1432 1433 1437 1437 1438 1441 1448 1457 1463 1470 1475 1478 1481 1483 1486 1486 1488 1489 1491 1493 1494 1495 1495 1495 1496
1444 1454 1466 1446 1434 1421 1426 1423 1427 1439 1457 1464 1477 1469 1430 1429 1425 1429 1432 1437 1442 1449 1452 1455 1449 1455 1460 1464 1471 1475 1476 1478 1481 1484 1485 1486 1487 1487 1487 1489 1491 1492 1493 1496
1443 1455 1460 1476 1455 1436 1426 1413 1419 1434 1452 1452 1455 1445 1435 1434 1432 1432 1433 1431 1439 1448 1455 1464 1451 1456 1462 1465 1469 1472 1475 1478 1480 1482 1484 1483 1485 1487 1489 1491 1492 1491 1493 1495
1450 1462 1455 1445 1436 1423 1411 1411 1416 1430 1435 1446 1437 1438 1433 1433 1429 1431 1430 1433 1434 1437 1440 1460 1456 1457 1462 1464 1467 1471 1475 1477 1478 1480 1483 1486 1488 1490 1492 1494 1495 1494 1493 1492
1449 1461 1453 1440 1431 1420 1414 1421 1417 1444 1447 1439 1434 1437 1429 1430 1431 1424 1423 1426 1430 1437 1441 1448 1453 1456 1458 1462 1464 1468 1471 1473 1476 1479 1483 1486 1487 1488 1489 1492 1494 1496 1495 1494
1453 1458 1455 1450 1439 1428 1443 1443 1440 1452 1455 1451 1447 1453 1439 1443 1440 1438 1437 1435 1438 1443 1448 1450 1451 1453 1457 1460 1464 1467 1469 1472 1473 1474 1477 1480 1482 1484 1488 1491 1493 1494 1495 1496
1451 1457 1461 1454 1444 1461 1454 1446 1444 1452 1455 1448 1449 1447 1449 1451 1457 1460 1441 1445 1441 1444 1449 1451 1453 1456 1458 1459 1466 1467 1469 1470 1471 1472 1474 1476 1480 1483 1485 1488 1492 1493 1494 1493
1432 1448 1459 1459 1461 1455 1457 1454 1456 1456 1457 1451 1447 1446 1451 1450 1443 1460 1450 1447 1446 1443 1449 1455 1450 1454 1458 1460 1461 1467 1469 1468 1469 1470 1471 1471 1471 1474 1476 1476 1477 1491 1489 1488
1436 1437 1445 1458 1456 1472 1469 1452 1449 1449 1455 1445 1445 1449 1438 1444 1466 1463 1454 1454 1434 1447 1451 1456 1451 1459 1465 1463 1461 1465 1464 1465 1468 1465 1465 1466 1467 1468 1468 1468 1464 1469 1473 1472
1460 1457 1458 1460 1456 1468 1458 1449 1447 1459 1455 1439 1443 1444 1438 1439 1452 1467 1451 1456 1460 1457 1462 1461 1461 1463 1464 1462 1462 1463 1462 1463 1464 1463 1459 1462 1463 1462 1463 1462 1460 1456 1456 1457
1474 1475 1474 1470 1467 1472 1453 1443 1456 1459 1445 1443 1443 1439 1437 1440 1453 1459 1449 1466 1467 1468 1463 1458 1462 1464 1465 1463 1462 1461 1460 1461 1461 1459 1457 1457 1457 1457 1453 1449 1441 1437 1435 1439
1475 1472 1476 1472 1473 1462 1462 1459 1458 1456 1460 1458 1458 1450 1443 1445 1453 1458 1446 1457 1459 1465 1466 1468 1469 1468 1466 1466 1463 1461 1459 1460 1459 1454 1453 1453 1452 1449 1447 1438 1433 1424 1411 1427
1465 1466 1471 1469 1469 1466 1463 1457 1450 1449 1462 1462 1457 1456 1457 1455 1452 1451 1446 1457 1463 1469 1473 1472 1469 1467 1466 1465 1464 1461 1460 1458 1456 1453 1451 1448 1446 1443 1440 1435 1429 1421 1418 1431
1463 1464 1464 1468 1467 1465 1462 1456 1455 1450 1451 1454 1454 1454 1453 1453 1456 1457 1462 1468 1473 1476 1477 1473 1470 1468 1467 1466 1464 1460 1458 1455 1453 1450 1447 1443 1440 1438 1433 1431 1429 1426 1424 1428
1462 1461 1466 1466 1458 1458 1455 1454 1454 1453 1454 1458 1459 1461 1465 1463 1463 1464 1466 1470 1473 1475 1473 1472 1472 1471 1471 1470 1467 1466 1462 1457 1454 1450 1445 1441 1436 1432 1428 1425 1422 1421 1426 1420
Wind_Speed
16 1 7 12 10 9 8 9 13 18 22 4 13 9 7 16 23 25 32 36 39 47 41 41 42 42 37 38 33 28 25 24 23 21 21 19 15 15 8 13 14 18 16 14
1 10 16 13 9 11 12 13 18 19 18 7 8 8 9 8 11 26 33 35 41 42 37 42 45 44 42 41 36 30 27 24 25 22 18 17 14 14 15 12 17 19 16 14
13 20 11 10 13 13 13 8 15 14 19 3 1 8 7 8 5 14 21 42 46 45 46 42 46 48 45 43 41 34 28 25 24 20 18 19 19 20 18 17 19 16 13 13
14 17 11 12 14 11 10 17 16 16 6 6 4 5 7 8 10 7 23 26 35 42 44 46 45 51 49 46 41 35 29 27 25 20 17 20 20 19 18 18 17 13 13 11
16 14 9 10 18 12 12 16 17 17 5 3 7 3 8 4 8 6 8 23 38 45 48 47 47 51 51 46 43 38 31 29 25 22 18 16 19 15 11 11 14 15 17 15
12 20 14 19 20 12 13 6 1 4 4 3 5 4 12 5 6 5 5 20 34 39 46 46 46 44 47 45 42 39 34 31 25 24 21 19 16 14 15 14 18 17 18 19
5 6 11 14 8 11 3 5 5 3 3 7 4 1 14 11 7 8 10 22 35 45 50 37 39 42 45 45 43 41 35 32 27 24 24 17 15 16 19 17 16 17 17 19
6 11 8 13 10 11 8 8 6 7 4 7 6 6 15 11 24 30 25 30 31 36 39 40 39 39 46 44 42 39 37 34 28 22 17 13 7 7 23 19 20 16 15 17
5 13 6 11 16 8 10 4 9 6 2 3 3 9 10 8 1 12 14 20 28 31 35 38 37 40 44 43 40 38 36 31 22 14 12 7 6 10 16 12 16 11 11 14
1 4 11 19 11 17 8 4 1 2 3 7 5 5 6 7 4 8 8 18 24 28 31 36 39 41 42 41 35 34 29 27 15 12 11 12 5 14 13 10 11 9 6 8
6 6 13 8 9 12 2 3 2 3 5 6 2 6 4 9 3 8 6 18 29 32 33 36 37 39 36 32 30 28 25 20 14 13 13 12 6 9 9 8 8 8 6 7
4 2 5 18 16 8 11 11 7 6 7 3 5 5 4 6 4 13 15 15 15 18 26 31 34 30 28 27 24 20 16 15 16 13 12 11 5 8 8 7 7 6 5 8
5 2 5 8 9 4 5 6 6 5 3 8 6 6 3 4 9 17 24 24 18 12 12 18 25 24 23 18 14 14 16 15 15 16 15 12 11 11 10 9 6 6 6 10
17 1 5 4 10 8 5 3 7 7 2 5 7 5 3 2 11 9 22 28 24 14 13 17 20 19 17 14 10 10 15 16 15 20 17 11 12 12 12 10 7 7 8 11
4 4 1 7 5 8 5 4 7 11 3 3 8 11 4 8 11 14 26 24 23 21 15 16 17 19 17 13 11 10 9 13 15 21 19 13 9 11 12 10 9 7 10 12
2 7 4 6 12 13 8 15 12 10 6 3 2 2 6 6 5 22 30 30 27 27 27 23 20 21 20 17 14 13 14 15 17 14 17 15 11 12 13 13 13 12 10 12
4 2 1 5 6 6 9 8 9 7 7 3 2 4 8 10 3 4 3 11 11 10 18 21 20 20 16 13 11 13 13 15 15 12 12 14 16 14 15 14 15 14 13 14
8 5 1 3 4 5 4 7 15 13 4 8 7 15 18 18 16 25 15 14 14 12 10 8 9 11 16 16 13 9 5 5 4 7 12 14 14 16 17 18 17 18 17 17
6 5 3 2 2 6 5 6 5 6 2 5 6 13 20 28 38 24 32 17 11 17 18 11 11 10 8 8 13 15 13 11 10 10 13 17 20 22 25 21 13 22 19 21
4 5 4 2 5 4 7 10 9 3 5 8 3 1 19 29 11 16 26 25 26 22 22 17 18 12 8 8 7 11 15 16 17 15 16 18 20 21 22 30 36 28 32 23
5 4 3 4 2 3 7 14 6 4 7 10 8 12 16 8 21 22 16 19 14 19 16 12 10 9 11 10 7 7 9 13 16 17 19 19 16 13 16 24 32 39 48 42
2 4 3 2 3 2 19 8 4 9 6 11 9 6 14 25 27 11 10 7 10 10 11 12 7 9 9 8 6 5 3 0 7 13 18 21 21 17 20 22 34 40 58 64
3 3 2 3 4 6 10 6 13 20 28 19 12 12 23 25 16 10 10 7 12 13 11 5 3 3 5 7 7 6 6 8 11 13 14 18 16 12 16 20 26 21 19 44
2 2 2 2 2 2 7 15 10 12 25 23 13 15 23 19 11 12 11 8 11 10 7 6 5 4 4 5 6 7 8 11 14 16 18 20 16 17 18 19 18 15 4 28
3 1 2 2 4 13 9 22 23 22 25 10 19 17 17 15 14 12 11 8 4 5 4 4 7 8 8 6 7 9 9 10 12 12 16 18 18 16 20 19 16 15 11 18
4 5 3 3 9 6 15 10 10 18 20 15 18 19 14 9 9 6 5 5 6 8 7 7 7 8 9 8 9 9 12 14 16 15 15 14 10 12 15 22 16 17 14 23
Wind_Direction
240 165 219 222 199 215 226 255 262 274 280 288 276 281 242 211 188 194 191 194 199 207 213 211 208 208 203 201 203 213 212 215 216 216 219 228 240 231 250 246 245 240 245 253
179 217 236 231 232 230 237 255 270 279 276 204 272 274 253 249 235 206 196 198 200 206 206 210 208 206 205 203 203 210 217 220 219 226 232 236 247 250 250 247 241 240 251 255
223 236 228 218 240 240 247 227 259 255 282 260 292 311 309 296 262 250 225 214 201 197 205 206 206 205 204 204 203 207 216 219 225 228 231 239 244 251 253 249 244 246 250 263
221 249 230 232 239 226 255 249 251 265 293 270 85 268 307 283 304 305 291 204 197 194 200 205 205 204 205 207 204 205 214 219 222 223 232 246 256 260 262 260 240 245 251 256
230 228 243 241 240 234 243 256 250 253 208 54 322 61 265 340 309 294 261 208 191 192 192 202 207 210 206 206 202 204 212 216 218 218 223 240 244 248 232 232 239 245 246 247
211 223 224 237 253 250 254 246 49 59 104 288 250 128 289 232 221 256 261 168 176 180 194 206 208 204 204 205 201 202 208 213 216 219 217 233 229 216 220 237 240 238 248 241
266 245 254 245 260 270 217 60 298 323 340 228 225 60 258 274 208 219 209 175 179 183 194 192 201 199 204 201 201 202 205 209 212 219 216 223 228 236 239 235 245 244 245 238
197 263 232 242 193 230 234 170 179 217 211 257 125 228 268 250 268 215 191 171 175 184 193 198 204 199 201 199 201 201 205 212 216 214 210 221 222 244 256 242 248 253 251 258
208 255 252 246 248 155 268 185 195 137 37 36 207 288 310 305 240 154 165 158 165 183 193 198 194 196 197 199 200 202 205 213 217 202 201 202 268 240 251 235 240 232 246 254
216 319 255 244 255 256 168 200 266 8 158 271 288 283 248 303 245 111 128 148 160 155 165 177 183 189 193 197 194 197 205 215 223 197 188 206 181 202 235 236 238 255 257 243
195 149 266 323 224 229 292 293 93 128 137 181 245 271 244 249 320 106 92 136 152 160 170 178 181 186 189 190 190 195 211 214 208 196 189 187 194 223 232 246 273 276 265 232
311 216 228 231 259 224 212 231 197 195 237 192 156 268 333 289 50 105 94 101 102 139 168 177 177 174 180 182 190 202 213 206 207 205 201 190 216 215 223 252 278 264 244 211
313 327 344 333 275 253 204 181 183 137 6 195 155 246 73 303 92 97 94 103 118 127 144 164 156 164 173 184 186 190 186 189 204 201 188 212 228 227 220 226 236 232 220 205
354 212 124 219 251 258 210 175 223 141 184 215 204 207 196 68 116 73 101 103 122 146 183 205 167 169 174 170 175 188 199 201 211 203 200 237 237 233 233 225 232 219 207 194
90 300 272 254 300 324 251 151 128 338 6 176 267 195 147 181 149 141 130 138 141 144 156 184 171 176 181 182 198 208 215 211 216 220 233 245 234 241 243 240 249 231 215 212
71 269 250 324 344 337 79 32 64 78 347 357 49 75 170 220 198 158 157 158 162 171 170 173 172 182 187 198 207 219 228 231 234 239 239 246 240 238 235 240 247 246 245 233
235 183 332 285 317 303 31 356 69 91 28 241 34 356 73 30 39 29 157 135 142 137 162 175 175 175 189 205 215 222 236 233 245 241 228 237 237 238 242 248 255 257 256 247
169 146 110 261 331 67 213 40 102 113 65 59 70 54 41 27 20 12 85 116 119 142 122 138 134 174 193 199 211 231 246 245 255 230 230 226 223 230 226 226 244 252 259 251
169 132 87 154 129 131 13 345 355 348 337 326 96 80 53 29 30 349 42 70 75 108 108 112 114 127 140 167 209 228 236 231 228 218 235 238 234 230 226 224 240 261 250 251
35 76 123 169 104 91 243 292 309 345 289 217 304 163 105 61 26 300 19 32 37 57 65 60 63 75 79 95 135 204 218 225 228 228 244 246 248 251 245 239 244 240 241 248
344 353 51 10 51 104 291 286 273 146 244 201 204 146 124 121 189 260 15 359 33 47 55 62 59 62 56 63 78 153 189 217 228 231 243 252 254 239 276 267 268 248 241 251
11 354 356 341 68 6 342 346 33 331 328 215 217 163 129 144 161 171 104 51 42 47 44 51 21 35 35 39 35 51 63 302 240 246 254 258 266 274 289 306 301 278 250 238
350 163 234 160 189 219 354 25 58 33 337 280 228 149 145 128 146 154 90 44 34 21 29 30 20 350 17 7 355 346 338 323 305 295 281 275 269 274 313 324 323 295 239 222
203 185 227 56 333 65 78 76 67 7 336 247 192 168 153 149 134 95 83 44 23 12 347 347 349 5 21 4 330 331 315 303 298 292 289 287 283 271 274 289 311 318 235 229
203 89 249 155 141 98 111 93 88 68 24 106 117 121 125 111 109 111 109 98 79 22 23 21 19 24 33 24 3 4 355 342 330 311 297 292 291 288 294 294 280 271 252 242
180 210 190 215 183 187 188 161 142 140 140 110 99 99 109 109 119 107 83 60 28 14 30 44 49 57 56 49 45 36 41 37 32 20 10 5 342 306 285 285 285 267 250 236